TimeCST,TemperatureF,Dew PointF,Humidity,Sea Level PressureIn,VisibilityMPH,Wind Direction,Wind SpeedMPH,Gust SpeedMPH,PrecipitationIn,Events,Conditions,WindDirDegrees,DateUTC
12:53 AM,37.9,30.9,76,29.59,10.0,WNW,10.4,-,N/A,,Overcast,300,2014-01-13 06:53:00
1:53 AM,37.0,30.9,79,29.60,10.0,WNW,5.8,-,N/A,,Overcast,290,2014-01-13 07:53:00
2:53 AM,39.0,30.9,73,29.60,10.0,WNW,6.9,-,N/A,,Overcast,300,2014-01-13 08:53:00
3:53 AM,37.0,30.9,79,29.60,10.0,WNW,6.9,-,N/A,,Overcast,290,2014-01-13 09:53:00
4:53 AM,37.0,30.9,79,29.61,10.0,West,6.9,-,N/A,,Overcast,270,2014-01-13 10:53:00
5:53 AM,37.9,30.9,76,29.62,10.0,West,8.1,-,N/A,,Overcast,260,2014-01-13 11:53:00
6:53 AM,39.0,30.9,73,29.65,10.0,WNW,10.4,-,N/A,,Overcast,290,2014-01-13 12:53:00
7:53 AM,39.0,30.0,70,29.68,10.0,WNW,12.7,-,N/A,,Scattered Clouds,300,2014-01-13 13:53:00
8:53 AM,37.9,30.0,73,29.72,10.0,WNW,10.4,-,N/A,,Clear,300,2014-01-13 14:53:00
9:53 AM,37.9,30.0,73,29.75,10.0,NW,23.0,28.8,N/A,,Scattered Clouds,320,2014-01-13 15:53:00
10:03 AM,36.0,30.0,79,29.73,10.0,NW,23.0,-,N/A,,Mostly Cloudy,310,2014-01-13 16:03:00
10:33 AM,35.1,28.9,78,29.75,10.0,NW,23.0,28.8,N/A,,Overcast,320,2014-01-13 16:33:00
10:53 AM,35.1,28.9,78,29.78,10.0,NW,17.3,25.3,N/A,,Overcast,310,2014-01-13 16:53:00
11:42 AM,35.1,28.9,78,29.76,10.0,NW,19.6,-,N/A,,Overcast,310,2014-01-13 17:42:00
11:53 AM,35.1,28.9,78,29.78,10.0,NW,16.1,-,N/A,,Overcast,320,2014-01-13 17:53:00
12:53 PM,37.0,27.0,67,29.77,10.0,NW,15.0,-,N/A,,Mostly Cloudy,310,2014-01-13 18:53:00
1:25 PM,37.0,28.0,70,29.74,10.0,WNW,12.7,-,N/A,,Scattered Clouds,300,2014-01-13 19:25:00
1:53 PM,37.0,28.9,73,29.77,10.0,West,12.7,-,N/A,,Mostly Cloudy,280,2014-01-13 19:53:00
2:18 PM,37.9,28.0,68,29.75,10.0,West,12.7,-,N/A,,Scattered Clouds,280,2014-01-13 20:18:00
2:53 PM,39.0,28.0,65,29.78,10.0,WNW,10.4,-,N/A,,Clear,290,2014-01-13 20:53:00
3:53 PM,37.9,27.0,65,29.79,10.0,West,11.5,-,N/A,,Clear,280,2014-01-13 21:53:00
4:53 PM,35.1,26.1,70,29.81,10.0,WSW,8.1,-,N/A,,Clear,250,2014-01-13 22:53:00
5:53 PM,32.0,24.1,73,29.82,10.0,WSW,5.8,-,N/A,,Clear,240,2014-01-13 23:53:00
6:53 PM,28.9,24.1,82,29.81,10.0,SSW,6.9,-,N/A,,Clear,200,2014-01-14 00:53:00
7:53 PM,28.9,23.0,78,29.81,10.0,SSW,8.1,-,N/A,,Clear,210,2014-01-14 01:53:00
8:53 PM,30.0,24.1,79,29.81,10.0,SSW,9.2,-,N/A,,Mostly Cloudy,200,2014-01-14 02:53:00
9:53 PM,30.0,25.0,82,29.78,10.0,South,10.4,-,N/A,,Overcast,190,2014-01-14 03:53:00
10:53 PM,30.0,24.1,79,29.77,10.0,South,10.4,-,N/A,,Clear,180,2014-01-14 04:53:00
11:53 PM,30.0,24.1,79,29.73,10.0,South,15.0,-,N/A,,Clear,180,2014-01-14 05:53:00